EW9486 Weather Reports


Display with metric or nautical units.
time (UTC)temp
F
wind
direction
speed
MPH
gust
MPH
rain 1hr
in
rain 24hr
in
rain mn
in
humidity
%
barometer
mb
20191013221225 40 268 3.0 0.0 0.00 0.04 0.03 72 1.0
20191013220325 40 292 2.0 0.0 0.00 0.04 0.03 73 1.0
20191013215328 40 315 1.0 0.0 0.00 0.04 0.03 73 1.0
20191013214327 39 323 3.0 0.0 0.00 0.04 0.03 75 1.0
20191013213329 39 12 2.0 0.0 0.00 0.04 0.03 77 1.0
20191013212423 39 135 0.0 0.0 0.00 0.04 0.03 77 1.0
20191013211429 39 325 2.0 0.0 0.00 0.04 0.03 77 1.0
20191013210525 38 281 3.0 0.0 0.00 0.04 0.03 78 1.0
20191013205528 38 310 2.0 0.0 0.00 0.04 0.03 77 1.0
20191013204529 39 300 2.0 0.0 0.00 0.04 0.03 76 1.0
20191013203530 39 360 0.0 0.0 0.00 0.04 0.03 75 1.0
20191013202624 39 330 1.0 0.0 0.00 0.04 0.03 75 1.0
20191013201630 39 287 1.0 0.0 0.00 0.04 0.03 76 1.0
20191013200726 39 291 2.0 0.0 0.00 0.04 0.03 76 1.0
20191013195728 39 300 1.0 0.0 0.00 0.04 0.03 76 1.0
20191013194822 39 253 1.0 0.0 0.00 0.04 0.03 75 1.0
20191013193828 40 304 2.0 0.0 0.00 0.04 0.03 72 1.0
20191013192927 40 328 3.0 0.0 0.00 0.04 0.03 72 1.0
20191013192026 40 250 2.0 0.0 0.00 0.04 0.03 72 1.0
20191013191126 40 306 4.0 0.0 0.00 0.04 0.03 72 1.0
20191013190225 40 281 2.0 0.0 0.00 0.04 0.03 73 1.0
20191013185228 39 290 3.0 0.0 0.00 0.04 0.03 74 1.0
20191013184229 39 264 2.0 0.0 0.00 0.04 0.03 76 1.0
20191013183328 39 234 0.0 0.0 0.00 0.04 0.03 74 1.0
20191013182330 39 308 4.0 0.0 0.00 0.04 0.03 76 1.0
20191013181329 39 305 3.0 0.0 0.00 0.04 0.03 78 1.0
20191013180426 38 327 4.0 0.0 0.00 0.04 0.03 80 1.0
20191013175426 38 332 2.0 0.0 0.00 0.04 0.03 80 1.0
20191013174428 38 350 1.0 0.0 0.00 0.04 0.03 82 1.0
20191013173428 38 261 1.0 0.0 0.00 0.04 0.03 82 1.0
20191013172526 38 333 1.0 0.0 0.01 0.04 0.03 81 1.0
20191013171531 38 41 1.0 0.0 0.01 0.04 0.03 81 1.0
20191013170525 38 36 0.0 0.0 0.02 0.04 0.03 82 1.0
20191013165529 38 208 1.0 0.0 0.02 0.04 0.03 81 1.0
20191013164530 37 315 0.0 0.0 0.02 0.04 0.03 80 1.0
20191013163627 37 323 1.0 0.0 0.02 0.04 0.03 81 1.0
20191013162727 37 328 2.0 0.0 0.01 0.03 0.02 79 1.0
20191013161729 35 360 0.0 0.0 0.01 0.03 0.02 81 1.0
20191013160827 36 22 0.0 0.0 0.01 0.03 0.02 82 1.0
20191013155926 37 173 0.0 0.0 0.00 0.02 0.01 80 1.0
20191013155022 37 45 1.0 0.0 0.00 0.02 0.01 81 1.0
20191013154029 37 225 0.0 0.0 0.00 0.02 0.01 81 1.0
20191013153032 37 266 0.0 0.0 0.00 0.02 0.01 82 1.0
20191013152028 37 130 0.0 0.0 0.00 0.02 0.01 82 1.0
20191013151128 37 225 0.0 0.0 0.00 0.02 0.01 82 1.0
20191013150225 37 223 1.0 0.0 0.00 0.02 0.01 82 1.0
20191013145226 37 179 0.0 0.0 0.01 0.02 0.01 83 1.0
20191013144322 37 45 0.0 0.0 0.01 0.02 0.01 82 1.0
20191013143328 37 202 0.0 0.0 0.01 0.02 0.01 83 1.0
20191013142329 37 357 1.0 0.0 0.01 0.02 0.01 83 1.0
20191013141327 36 360 0.0 0.0 0.01 0.02 0.01 82 1.0
20191013140426 35 135 0.0 0.0 0.01 0.02 0.01 79 1.0
20191013135427 34 209 0.0 0.0 0.00 0.01 0.00 78 1.0
20191013134428 33 290 0.0 0.0 0.00 0.01 0.00 77 1.0
20191013133429 33 270 0.0 0.0 0.00 0.01 0.00 75 1.0
20191013132428 32 225 0.0 0.0 0.00 0.01 0.00 74 1.0
20191013131428 31 135 0.0 0.0 0.00 0.01 0.00 75 1.0
20191013130527 31 135 0.0 0.0 0.00 0.01 0.00 76 1.0
20191013125527 31 180 0.0 0.0 0.00 0.01 0.00 75 1.0
20191013124530 31 180 0.0 0.0 0.00 0.01 0.00 76 1.0
20191013123628 31 202 0.0 0.0 0.00 0.01 0.00 77 1.0
20191013122629 31 202 0.0 0.0 0.00 0.01 0.00 77 1.0
20191013121728 32 225 0.0 0.0 0.00 0.01 0.00 78 1.0
20191013120729 33 225 0.0 0.0 0.00 0.01 0.00 77 1.0
20191013115728 33 225 0.0 0.0 0.00 0.01 0.00 77 1.0
20191013114729 33 225 0.0 0.0 0.00 0.01 0.00 77 1.0
20191013113728 33 270 0.0 0.0 0.00 0.01 0.00 76 1.0
20191013112726 33 270 0.0 0.0 0.00 0.01 0.00 76 1.0
20191013111724 33 270 0.0 0.0 0.00 0.01 0.00 77 1.0
20191013110728 33 270 0.0 0.0 0.00 0.01 0.00 76 1.0
20191013105725 32 247 0.0 0.0 0.00 0.01 0.00 77 1.0
20191013104728 33 247 0.0 0.0 0.00 0.01 0.00 77 1.0
20191013103827 33 242 0.0 0.0 0.00 0.01 0.00 77 1.0
20191013102829 33 209 0.0 0.0 0.00 0.01 0.00 78 1.0
20191013101928 33 277 0.0 0.0 0.00 0.01 0.00 78 1.0
20191013101028 33 108 0.0 0.0 0.00 0.01 0.00 78 1.0
20191013100126 33 135 0.0 0.0 0.00 0.01 0.00 78 1.0
20191013095220 33 90 0.0 0.0 0.00 0.01 0.00 78 1.0
20191013094226 33 225 0.0 0.0 0.00 0.01 0.00 78 1.0
20191013093326 33 135 0.0 0.0 0.00 0.01 0.00 78 1.0
20191013092329 33 135 0.0 0.0 0.00 0.01 0.00 78 1.0
20191013091428 33 22 0.0 0.0 0.00 0.01 0.00 77 1.0
20191013090523 33 22 0.0 0.0 0.00 0.01 0.00 78 1.0
20191013085526 33 145 0.0 0.0 0.00 0.01 0.00 77 1.0
20191013084530 33 188 0.0 0.0 0.00 0.01 0.00 77 1.0
20191013083529 33 135 0.0 0.0 0.00 0.01 0.00 78 1.0
20191013082528 33 135 0.0 0.0 0.00 0.01 0.00 78 1.0
20191013081529 33 135 0.0 0.0 0.00 0.01 0.00 78 1.0
20191013080625 33 285 0.0 0.0 0.00 0.01 0.00 78 1.0
20191013075629 33 157 0.0 0.0 0.00 0.01 0.00 78 1.0
20191013074727 33 141 1.0 0.0 0.00 0.01 0.00 78 1.0
20191013073728 33 135 0.0 0.0 0.00 0.01 0.00 77 1.0
20191013072826 33 102 3.0 0.0 0.00 0.01 0.00 78 1.0
20191013071827 33 108 0.0 0.0 0.00 0.01 0.00 78 1.0
20191013070826 33 129 2.0 0.0 0.00 0.01 0.00 78 1.0
20191013065830 33 223 0.0 0.0 0.00 0.01 0.00 77 1.0
20191013064927 33 120 0.0 0.0 0.00 0.01 0.00 77 1.0
20191013064028 33 162 0.0 0.0 0.00 0.01 0.00 78 1.0
20191013063034 33 113 2.0 0.0 0.00 0.01 0.00 77 1.0
20191013062029 32 141 2.0 0.0 0.00 0.01 0.00 76 1.0
20191013061027 33 124 0.0 0.0 0.00 0.01 0.00 77 1.0
20191013060032 32 118 0.0 0.0 0.00 0.01 0.00 78 1.0
20191013055029 33 106 0.0 0.0 0.00 0.01 0.00 78 1.0
20191013054026 33 173 2.0 0.0 0.00 0.01 0.00 78 1.0
20191013053030 33 89 1.0 0.0 0.00 0.01 0.00 78 1.0
20191013052126 33 135 1.0 0.0 0.00 0.01 0.00 77 1.0
20191013051126 33 193 0.0 0.0 0.00 0.01 0.00 77 1.0
20191013050228 32 117 1.0 0.0 0.00 0.01 0.00 77 1.0
20191013045324 32 126 2.0 0.0 0.00 0.01 0.01 77 1.0
20191013044422 32 135 1.0 0.0 0.00 0.01 0.01 76 1.0
20191013043424 32 135 0.0 0.0 0.00 0.01 0.01 77 1.0
20191013042423 33 116 1.0 0.0 0.00 0.01 0.01 79 1.0
20191013041425 33 125 1.0 0.0 0.00 0.01 0.01 79 1.0
20191013040521 33 162 1.0 0.0 0.00 0.01 0.01 80 1.0
20191013035524 33 129 3.0 0.0 0.00 0.01 0.01 79 1.0
20191013034622 33 156 2.0 0.0 0.00 0.01 0.01 79 1.0
20191013033624 33 69 0.0 0.0 0.00 0.01 0.01 78 1.0
20191013032623 33 135 0.0 0.0 0.00 0.01 0.01 79 1.0
20191013031723 33 147 0.0 0.0 0.00 0.01 0.01 79 1.0
20191013030722 33 135 0.0 0.0 0.00 0.01 0.01 79 1.0
20191013025724 33 133 1.0 0.0 0.00 0.01 0.01 77 1.0
20191013024724 33 349 0.0 0.0 0.00 0.01 0.01 78 1.0
20191013023723 33 56 1.0 0.0 0.00 0.01 0.01 78 1.0
20191013022723 33 120 2.0 0.0 0.00 0.01 0.01 78 1.0
20191013021725 33 137 3.0 0.0 0.00 0.01 0.01 78 1.0
20191013020823 33 135 0.0 0.0 0.00 0.01 0.01 77 1.0
20191013015924 33 135 0.0 0.0 0.00 0.01 0.01 79 1.0
20191013014924 33 142 2.0 0.0 0.00 0.01 0.01 79 1.0
20191013014024 33 117 1.0 0.0 0.00 0.01 0.01 79 1.0
20191013013026 33 134 1.0 0.0 0.00 0.01 0.01 79 1.0
20191013012025 33 135 0.0 0.0 0.00 0.01 0.01 80 1.0
20191013011024 33 170 1.0 0.0 0.00 0.01 0.01 79 1.0
20191013005025 33 118 0.0 0.0 0.00 0.01 0.01 79 1.0
20191013004022 33 135 0.0 0.0 0.00 0.01 0.01 80 1.0
20191013003024 33 157 0.0 0.0 0.00 0.01 0.01 79 1.0
20191013002024 33 135 0.0 0.0 0.00 0.01 0.01 80 1.0
20191013001124 33 135 0.0 0.0 0.00 0.01 0.01 80 1.0
20191013000138 33 109 1.0 0.0 0.00 0.01 0.01 79 1.0
20191012235222 33 131 2.0 0.0 0.00 0.01 0.01 79 1.0
20191012234224 33 247 0.0 0.0 0.01 0.01 0.01 78 1.0
20191012233322 33 157 1.0 0.0 0.01 0.01 0.01 79 1.0
20191012232322 34 135 1.0 0.0 0.01 0.01 0.01 78 1.0
20191012231324 34 159 1.0 0.0 0.01 0.01 0.01 79 1.0
20191012230420 34 139 2.0 0.0 0.01 0.01 0.01 78 1.0
20191012225422 34 135 0.0 0.0 0.01 0.01 0.01 79 1.0
20191012224425 34 135 2.0 0.0 0.01 0.01 0.01 79 1.0
20191012223523 34 135 1.0 0.0 0.00 0.00 0.00 79 1.0
20191012222523 34 67 0.0 0.0 0.00 0.00 0.00 78 1.0
20191012221523 34 135 1.0 0.0 0.00 0.00 0.00 79 1.0